Year,Month,Day,Hour,Minute,Value (Times are PST for temperature in C)
2016,02,25,00,00,4.00
2016,02,25,00,01,4.00
2016,02,25,00,02,4.00
2016,02,25,00,03,3.90
2016,02,25,00,04,3.90
2016,02,25,00,05,3.90
2016,02,25,00,06,3.90
2016,02,25,00,07,3.90
2016,02,25,00,08,3.90
2016,02,25,00,09,3.80
2016,02,25,00,10,3.80
2016,02,25,00,11,3.80
2016,02,25,00,12,3.80
2016,02,25,00,13,3.80
2016,02,25,00,14,3.80
2016,02,25,00,15,3.70
2016,02,25,00,16,3.70
2016,02,25,00,17,3.70
2016,02,25,00,18,3.70
2016,02,25,00,19,3.70
2016,02,25,00,20,3.70
2016,02,25,00,21,3.60
2016,02,25,00,22,3.60
2016,02,25,00,23,3.60
2016,02,25,00,24,3.60
2016,02,25,00,25,3.60
2016,02,25,00,26,3.60
2016,02,25,00,27,3.60
2016,02,25,00,28,3.50
2016,02,25,00,29,3.50
2016,02,25,00,30,3.50
2016,02,25,00,31,3.50
2016,02,25,00,32,3.50
2016,02,25,00,33,3.50
2016,02,25,00,34,3.50
2016,02,25,00,35,3.40
2016,02,25,00,36,3.50
2016,02,25,00,37,3.40
2016,02,25,00,38,3.40
2016,02,25,00,39,3.40
2016,02,25,00,40,3.40
2016,02,25,00,41,3.40
2016,02,25,00,42,3.40
2016,02,25,00,43,3.40
2016,02,25,00,44,3.40
2016,02,25,00,45,3.40
2016,02,25,00,46,3.40
2016,02,25,00,47,3.40
2016,02,25,00,48,3.40
2016,02,25,00,49,3.40
2016,02,25,00,50,3.40
2016,02,25,00,51,3.40
2016,02,25,00,52,3.40
2016,02,25,00,53,3.40
2016,02,25,00,54,3.40
2016,02,25,00,55,3.30
2016,02,25,00,56,3.30
2016,02,25,00,57,3.20
2016,02,25,00,58,3.20
2016,02,25,00,59,3.20
2016,02,25,01,00,3.20
2016,02,25,01,01,3.20
2016,02,25,01,02,3.20
2016,02,25,01,03,3.10
2016,02,25,01,04,3.10
2016,02,25,01,05,3.10
2016,02,25,01,06,3.10
2016,02,25,01,07,3.10
2016,02,25,01,08,3.10
2016,02,25,01,09,3.10
2016,02,25,01,10,3.10
2016,02,25,01,11,3.10
2016,02,25,01,12,3.10
2016,02,25,01,13,3.10
2016,02,25,01,14,3.10
2016,02,25,01,15,3.10
2016,02,25,01,16,3.10
2016,02,25,01,17,3.10
2016,02,25,01,18,3.10
2016,02,25,01,19,3.00
2016,02,25,01,20,3.00
2016,02,25,01,21,3.00
2016,02,25,01,22,3.00
2016,02,25,01,23,3.10
2016,02,25,01,24,3.10
2016,02,25,01,25,3.10
2016,02,25,01,26,3.10
2016,02,25,01,27,3.10
2016,02,25,01,28,3.00
2016,02,25,01,29,3.00
2016,02,25,01,30,3.00
2016,02,25,01,31,3.00
2016,02,25,01,32,2.90
2016,02,25,01,33,2.90
2016,02,25,01,34,2.90
2016,02,25,01,35,2.90
2016,02,25,01,36,2.90
2016,02,25,01,37,2.90
2016,02,25,01,38,2.90
2016,02,25,01,39,2.80
2016,02,25,01,40,2.80
2016,02,25,01,41,2.80
2016,02,25,01,42,2.80
2016,02,25,01,43,2.80
2016,02,25,01,44,2.80
2016,02,25,01,45,2.80
2016,02,25,01,46,2.70
2016,02,25,01,47,2.70
2016,02,25,01,48,2.70
2016,02,25,01,49,2.70
2016,02,25,01,50,2.80
2016,02,25,01,51,2.80
2016,02,25,01,52,2.80
2016,02,25,01,53,2.80
2016,02,25,01,54,2.70
2016,02,25,01,55,2.70
2016,02,25,01,56,2.70
2016,02,25,01,57,2.70
2016,02,25,01,58,2.70
2016,02,25,01,59,2.70
2016,02,25,02,00,2.70
2016,02,25,02,01,2.60
2016,02,25,02,02,2.60
2016,02,25,02,03,2.60
2016,02,25,02,04,2.50
2016,02,25,02,05,2.50
2016,02,25,02,06,2.50
2016,02,25,02,07,2.50
2016,02,25,02,08,2.40
2016,02,25,02,09,2.40
2016,02,25,02,10,2.40
2016,02,25,02,11,2.30
2016,02,25,02,12,2.30
2016,02,25,02,13,2.30
2016,02,25,02,14,2.30
2016,02,25,02,15,2.20
2016,02,25,02,16,2.20
2016,02,25,02,17,2.20
2016,02,25,02,18,2.20
2016,02,25,02,19,2.20
2016,02,25,02,20,2.20
2016,02,25,02,21,2.20
2016,02,25,02,22,2.20
2016,02,25,02,23,2.30
2016,02,25,02,24,2.30
2016,02,25,02,25,2.30
2016,02,25,02,26,2.30
2016,02,25,02,27,2.30
2016,02,25,02,28,2.30
2016,02,25,02,29,2.30
2016,02,25,02,30,2.30
2016,02,25,02,31,2.30
2016,02,25,02,32,2.30
2016,02,25,02,33,2.30
2016,02,25,02,34,2.30
2016,02,25,02,35,2.30
2016,02,25,02,36,2.30
2016,02,25,02,37,2.40
2016,02,25,02,38,2.40
2016,02,25,02,39,2.40
2016,02,25,02,40,2.40
2016,02,25,02,41,2.50
2016,02,25,02,42,2.50
2016,02,25,02,43,2.50
2016,02,25,02,44,2.60
2016,02,25,02,45,2.60
2016,02,25,02,46,2.60
2016,02,25,02,47,2.60
2016,02,25,02,48,2.60
2016,02,25,02,49,2.70
2016,02,25,02,50,2.70
2016,02,25,02,51,2.70
2016,02,25,02,52,2.70
2016,02,25,02,53,2.70
2016,02,25,02,54,2.70
2016,02,25,02,55,2.70
2016,02,25,02,56,2.70
2016,02,25,02,57,2.70
2016,02,25,02,58,2.70
2016,02,25,02,59,2.70
2016,02,25,03,00,2.70
2016,02,25,03,01,2.70
2016,02,25,03,02,2.70
2016,02,25,03,03,2.60
2016,02,25,03,04,2.60
2016,02,25,03,05,2.60
2016,02,25,03,06,2.60
2016,02,25,03,07,2.60
2016,02,25,03,08,2.60
2016,02,25,03,09,2.60
2016,02,25,03,10,2.60
2016,02,25,03,11,2.60
2016,02,25,03,12,2.60
2016,02,25,03,13,2.60
2016,02,25,03,14,2.50
2016,02,25,03,15,2.50
2016,02,25,03,16,2.40
2016,02,25,03,17,2.40
2016,02,25,03,18,2.30
2016,02,25,03,19,2.30
2016,02,25,03,20,2.30
2016,02,25,03,21,2.30
2016,02,25,03,22,2.30
2016,02,25,03,23,2.30
2016,02,25,03,24,2.30
2016,02,25,03,25,2.30
2016,02,25,03,26,2.30
2016,02,25,03,27,2.30
2016,02,25,03,28,2.30
2016,02,25,03,29,2.30
2016,02,25,03,30,2.40
2016,02,25,03,31,2.40
2016,02,25,03,32,2.50
2016,02,25,03,33,2.50
2016,02,25,03,34,2.50
2016,02,25,03,35,2.60
2016,02,25,03,36,2.60
2016,02,25,03,37,2.50
2016,02,25,03,38,2.50
2016,02,25,03,39,2.50
2016,02,25,03,40,2.50
2016,02,25,03,41,2.40
2016,02,25,03,42,2.40
2016,02,25,03,43,2.30
2016,02,25,03,44,2.30
2016,02,25,03,45,2.30
2016,02,25,03,46,2.30
2016,02,25,03,47,2.30
2016,02,25,03,48,2.20
2016,02,25,03,49,2.20
2016,02,25,03,50,2.20
2016,02,25,03,51,2.20
2016,02,25,03,52,2.20
2016,02,25,03,53,2.10
2016,02,25,03,54,2.10
2016,02,25,03,55,2.10
2016,02,25,03,56,2.10
2016,02,25,03,57,2.00
2016,02,25,03,58,2.00
2016,02,25,03,59,2.00
2016,02,25,04,00,1.90
2016,02,25,04,01,1.90
2016,02,25,04,02,1.90
2016,02,25,04,03,1.90
2016,02,25,04,04,1.90
2016,02,25,04,05,1.80
2016,02,25,04,06,1.80
2016,02,25,04,07,1.80
2016,02,25,04,08,1.80
2016,02,25,04,09,1.80
2016,02,25,04,10,1.80
2016,02,25,04,11,1.80
2016,02,25,04,12,1.80
2016,02,25,04,13,1.80
2016,02,25,04,14,1.80
2016,02,25,04,15,1.80
2016,02,25,04,16,1.80
2016,02,25,04,17,1.90
2016,02,25,04,18,1.80
2016,02,25,04,19,1.80
2016,02,25,04,20,1.80
2016,02,25,04,21,1.80
2016,02,25,04,22,1.80
2016,02,25,04,23,1.90
2016,02,25,04,24,1.90
2016,02,25,04,25,1.90
2016,02,25,04,26,1.90
2016,02,25,04,27,1.90
2016,02,25,04,28,1.90
2016,02,25,04,29,1.90
2016,02,25,04,30,1.80
2016,02,25,04,31,1.80
2016,02,25,04,32,1.70
2016,02,25,04,33,1.70
2016,02,25,04,34,1.70
2016,02,25,04,35,1.70
2016,02,25,04,36,1.70
2016,02,25,04,37,1.70
2016,02,25,04,38,1.70
2016,02,25,04,39,1.70
2016,02,25,04,40,1.70
2016,02,25,04,41,1.70
2016,02,25,04,42,1.80
2016,02,25,04,43,1.80
2016,02,25,04,44,1.80
2016,02,25,04,45,1.90
2016,02,25,04,46,1.90
2016,02,25,04,47,1.90
2016,02,25,04,48,1.90
2016,02,25,04,49,1.90
2016,02,25,04,50,1.90
2016,02,25,04,51,1.90
2016,02,25,04,52,1.80
2016,02,25,04,53,1.80
2016,02,25,04,54,1.80
2016,02,25,04,55,1.80
2016,02,25,04,56,1.80
2016,02,25,04,57,1.80
2016,02,25,04,58,1.70
2016,02,25,04,59,1.70
2016,02,25,05,00,1.70
2016,02,25,05,01,1.70
2016,02,25,05,02,1.70
2016,02,25,05,03,1.60
2016,02,25,05,04,1.60
2016,02,25,05,05,1.60
2016,02,25,05,06,1.60
2016,02,25,05,07,1.60
2016,02,25,05,08,1.60
2016,02,25,05,09,1.60
2016,02,25,05,10,1.60
2016,02,25,05,11,1.60
2016,02,25,05,12,1.60
2016,02,25,05,13,1.60
2016,02,25,05,14,1.60
2016,02,25,05,15,1.60
2016,02,25,05,16,1.60
2016,02,25,05,17,1.60
2016,02,25,05,18,1.60
2016,02,25,05,19,1.60
2016,02,25,05,20,1.60
2016,02,25,05,21,1.60
2016,02,25,05,22,1.60
2016,02,25,05,23,1.70
2016,02,25,05,24,1.80
2016,02,25,05,25,1.90
2016,02,25,05,26,1.90
2016,02,25,05,27,1.90
2016,02,25,05,28,1.90
2016,02,25,05,29,1.90
2016,02,25,05,30,1.90
2016,02,25,05,31,1.90
2016,02,25,05,32,1.90
2016,02,25,05,33,1.90
2016,02,25,05,34,1.90
2016,02,25,05,35,1.90
2016,02,25,05,36,2.00
2016,02,25,05,37,2.00
2016,02,25,05,38,2.00
2016,02,25,05,39,2.00
2016,02,25,05,40,2.00
2016,02,25,05,41,2.00
2016,02,25,05,42,2.10
2016,02,25,05,43,2.20
2016,02,25,05,44,2.20
2016,02,25,05,45,2.30
2016,02,25,05,46,2.30
2016,02,25,05,47,2.30
2016,02,25,05,48,2.20
2016,02,25,05,49,2.20
2016,02,25,05,50,2.20
2016,02,25,05,51,2.20
2016,02,25,05,52,2.10
2016,02,25,05,53,2.10
2016,02,25,05,54,2.00
2016,02,25,05,55,2.00
2016,02,25,05,56,1.90
2016,02,25,05,57,1.90
2016,02,25,05,58,2.00
2016,02,25,05,59,2.00
2016,02,25,06,00,2.10
2016,02,25,06,01,2.20
2016,02,25,06,02,2.30
2016,02,25,06,03,2.30
2016,02,25,06,04,2.30
2016,02,25,06,05,2.40
2016,02,25,06,06,2.50
2016,02,25,06,07,2.50
2016,02,25,06,08,2.60
2016,02,25,06,09,2.70
2016,02,25,06,10,2.70
2016,02,25,06,11,2.80
2016,02,25,06,12,2.90
2016,02,25,06,13,2.90
2016,02,25,06,14,2.90
2016,02,25,06,15,2.90
2016,02,25,06,16,2.90
2016,02,25,06,17,3.00
2016,02,25,06,18,3.00
2016,02,25,06,19,3.00
2016,02,25,06,20,3.10
2016,02,25,06,21,3.10
2016,02,25,06,22,3.10
2016,02,25,06,23,3.10
2016,02,25,06,24,3.20
2016,02,25,06,25,3.20
2016,02,25,06,26,3.20
2016,02,25,06,27,3.20
2016,02,25,06,28,3.20
2016,02,25,06,29,3.20
2016,02,25,06,30,3.20
2016,02,25,06,31,3.20
2016,02,25,06,32,3.10
2016,02,25,06,33,3.10
2016,02,25,06,34,3.10
2016,02,25,06,35,3.10
2016,02,25,06,36,3.10
2016,02,25,06,37,3.10
2016,02,25,06,38,3.10
2016,02,25,06,39,3.10
2016,02,25,06,40,3.10
2016,02,25,06,41,3.20
2016,02,25,06,42,3.20
2016,02,25,06,43,3.20
2016,02,25,06,44,3.20
2016,02,25,06,45,3.30
2016,02,25,06,46,3.30
2016,02,25,06,47,3.30
2016,02,25,06,48,3.30
2016,02,25,06,49,3.40
2016,02,25,06,50,3.40
2016,02,25,06,51,3.40
2016,02,25,06,52,3.50
2016,02,25,06,53,3.50
2016,02,25,06,54,3.50
2016,02,25,06,55,3.50
2016,02,25,06,56,3.60
2016,02,25,06,57,3.60
2016,02,25,06,58,3.60
2016,02,25,06,59,3.60
2016,02,25,07,00,3.60
2016,02,25,07,01,3.60
2016,02,25,07,02,3.60
2016,02,25,07,03,3.60
2016,02,25,07,04,3.70
2016,02,25,07,05,3.70
2016,02,25,07,06,3.70
2016,02,25,07,07,3.80
2016,02,25,07,08,3.80
2016,02,25,07,09,3.80
2016,02,25,07,10,3.90
2016,02,25,07,11,3.90
2016,02,25,07,12,4.00
2016,02,25,07,13,4.00
2016,02,25,07,14,4.10
2016,02,25,07,15,4.10
2016,02,25,07,16,4.20
2016,02,25,07,17,4.20
2016,02,25,07,18,4.30
2016,02,25,07,19,4.30
2016,02,25,07,20,4.30
2016,02,25,07,21,4.30
2016,02,25,07,22,4.30
2016,02,25,07,23,4.30
2016,02,25,07,24,4.30
2016,02,25,07,25,4.30
2016,02,25,07,26,4.40
2016,02,25,07,27,4.40
2016,02,25,07,28,4.40
2016,02,25,07,29,4.50
2016,02,25,07,30,4.50
2016,02,25,07,31,4.60
2016,02,25,07,32,4.60
2016,02,25,07,33,4.60
2016,02,25,07,34,4.70
2016,02,25,07,35,4.70
2016,02,25,07,36,4.70
2016,02,25,07,37,4.70
2016,02,25,07,38,4.80
2016,02,25,07,39,4.80
2016,02,25,07,40,4.80
2016,02,25,07,41,4.90
2016,02,25,07,42,4.90
2016,02,25,07,43,4.90
2016,02,25,07,44,5.00
2016,02,25,07,45,5.00
2016,02,25,07,46,5.10
2016,02,25,07,47,5.10
2016,02,25,07,48,5.20
2016,02,25,07,49,5.20
2016,02,25,07,50,5.30
2016,02,25,07,51,5.30
2016,02,25,07,52,5.30
2016,02,25,07,53,5.40
2016,02,25,07,54,5.40
2016,02,25,07,55,5.40
2016,02,25,07,56,5.50
2016,02,25,07,57,5.50
2016,02,25,07,58,5.60
2016,02,25,07,59,5.60
2016,02,25,08,00,5.70
2016,02,25,08,01,5.70
2016,02,25,08,02,5.80
2016,02,25,08,03,5.80
2016,02,25,08,04,5.80
2016,02,25,08,05,5.90
2016,02,25,08,06,6.00
2016,02,25,08,07,6.00
2016,02,25,08,08,6.10
2016,02,25,08,09,6.20
2016,02,25,08,10,6.20
2016,02,25,08,11,6.30
2016,02,25,08,12,6.40
2016,02,25,08,13,6.50
2016,02,25,08,14,6.60
2016,02,25,08,15,6.70
2016,02,25,08,16,6.80
2016,02,25,08,17,6.90
2016,02,25,08,18,7.00
2016,02,25,08,19,7.10
2016,02,25,08,20,7.10
2016,02,25,08,21,7.20
2016,02,25,08,22,7.30
2016,02,25,08,23,7.30
2016,02,25,08,24,7.40
2016,02,25,08,25,7.50
2016,02,25,08,26,7.50
2016,02,25,08,27,7.60
2016,02,25,08,28,7.60
2016,02,25,08,29,7.70
2016,02,25,08,30,7.70
2016,02,25,08,31,7.80
2016,02,25,08,32,7.80
2016,02,25,08,33,7.80
2016,02,25,08,34,7.90
2016,02,25,08,35,7.90
2016,02,25,08,36,8.00
2016,02,25,08,37,8.00
2016,02,25,08,38,8.00
2016,02,25,08,39,8.10
2016,02,25,08,40,8.10
2016,02,25,08,41,8.10
2016,02,25,08,42,8.10
2016,02,25,08,43,8.20
2016,02,25,08,44,8.20
2016,02,25,08,45,8.20
2016,02,25,08,46,8.20
2016,02,25,08,47,8.20
2016,02,25,08,48,8.30
2016,02,25,08,49,8.30
2016,02,25,08,50,8.30
2016,02,25,08,51,8.40
2016,02,25,08,52,8.40
2016,02,25,08,53,8.40
2016,02,25,08,54,8.50
2016,02,25,08,55,8.50
2016,02,25,08,56,8.50
2016,02,25,08,57,8.50
2016,02,25,08,58,8.50
2016,02,25,08,59,8.50
2016,02,25,09,00,8.60
2016,02,25,09,01,8.60
2016,02,25,09,02,8.60
2016,02,25,09,03,8.60
2016,02,25,09,04,8.60
2016,02,25,09,05,8.60
2016,02,25,09,06,8.60
2016,02,25,09,07,8.60
2016,02,25,09,08,8.60
2016,02,25,09,09,8.60
2016,02,25,09,10,8.60
2016,02,25,09,11,8.60
2016,02,25,09,12,8.60
2016,02,25,09,13,8.70
2016,02,25,09,14,8.70
2016,02,25,09,15,8.70
2016,02,25,09,16,8.70
2016,02,25,09,17,8.70
2016,02,25,09,18,8.70
2016,02,25,09,19,8.80
2016,02,25,09,20,8.80
2016,02,25,09,21,8.80
2016,02,25,09,22,8.80
2016,02,25,09,23,8.90
2016,02,25,09,24,8.90
2016,02,25,09,25,8.90
2016,02,25,09,26,9.00
2016,02,25,09,27,9.00
2016,02,25,09,28,9.00
2016,02,25,09,29,9.00
2016,02,25,09,30,9.10
2016,02,25,09,31,9.10
2016,02,25,09,32,9.10
2016,02,25,09,33,9.10
2016,02,25,09,34,9.10
2016,02,25,09,35,9.20
2016,02,25,09,36,9.20
2016,02,25,09,37,9.20
2016,02,25,09,38,9.20
2016,02,25,09,39,9.20
2016,02,25,09,40,9.20
2016,02,25,09,41,9.20
2016,02,25,09,42,9.20
2016,02,25,09,43,9.30
2016,02,25,09,44,9.30
2016,02,25,09,45,9.40
2016,02,25,09,46,9.40
2016,02,25,09,47,9.40
2016,02,25,09,48,9.50
2016,02,25,09,49,9.50
2016,02,25,09,50,9.60
2016,02,25,09,51,9.60
2016,02,25,09,52,9.70
2016,02,25,09,53,9.70
2016,02,25,09,54,9.70
2016,02,25,09,55,9.70
2016,02,25,09,56,9.70
2016,02,25,09,57,9.70
2016,02,25,09,58,9.70
2016,02,25,09,59,9.80
2016,02,25,10,00,9.80
2016,02,25,10,01,9.80
2016,02,25,10,02,9.80
2016,02,25,10,03,9.80
2016,02,25,10,04,9.80
2016,02,25,10,05,9.80
2016,02,25,10,06,9.80
2016,02,25,10,07,9.80
2016,02,25,10,08,9.90
2016,02,25,10,09,9.90
2016,02,25,10,10,10.00
2016,02,25,10,11,10.00
2016,02,25,10,12,10.10
2016,02,25,10,13,10.20
2016,02,25,10,14,10.20
2016,02,25,10,15,10.30
2016,02,25,10,16,10.30
2016,02,25,10,17,10.30
2016,02,25,10,18,10.40
2016,02,25,10,19,10.40
2016,02,25,10,20,10.40
2016,02,25,10,21,10.50
2016,02,25,10,22,10.50
2016,02,25,10,23,10.60
2016,02,25,10,24,10.60
2016,02,25,10,25,10.60
2016,02,25,10,26,10.70
2016,02,25,10,27,10.70
2016,02,25,10,28,10.70
2016,02,25,10,29,10.80
2016,02,25,10,30,10.80
2016,02,25,10,31,10.80
2016,02,25,10,32,10.80
2016,02,25,10,33,10.80
2016,02,25,10,34,10.80
2016,02,25,10,35,10.80
2016,02,25,10,36,10.80
2016,02,25,10,37,10.80
2016,02,25,10,38,10.80
2016,02,25,10,39,10.80
2016,02,25,10,40,10.80
2016,02,25,10,41,10.70
2016,02,25,10,42,10.70
2016,02,25,10,43,10.70
2016,02,25,10,44,10.70
2016,02,25,10,45,10.80
2016,02,25,10,46,10.80
2016,02,25,10,47,10.90
2016,02,25,10,48,10.90
2016,02,25,10,49,11.00
2016,02,25,10,50,11.00
2016,02,25,10,51,11.00
2016,02,25,10,52,11.00
2016,02,25,10,53,11.00
2016,02,25,10,54,11.10
2016,02,25,10,55,11.10
2016,02,25,10,56,11.10
2016,02,25,10,57,11.10
2016,02,25,10,58,11.20
2016,02,25,10,59,11.20
2016,02,25,11,00,11.20
2016,02,25,11,01,11.30
2016,02,25,11,02,11.30
2016,02,25,11,03,11.40
2016,02,25,11,04,11.40
2016,02,25,11,05,11.50
2016,02,25,11,06,11.50
2016,02,25,11,07,11.60
2016,02,25,11,08,11.60
2016,02,25,11,09,11.60
2016,02,25,11,10,11.70
2016,02,25,11,11,11.70
2016,02,25,11,12,11.70
2016,02,25,11,13,11.70
2016,02,25,11,14,11.70
2016,02,25,11,15,11.70
2016,02,25,11,16,11.70
2016,02,25,11,17,11.70
2016,02,25,11,18,11.80
2016,02,25,11,19,11.80
2016,02,25,11,20,11.80
2016,02,25,11,21,11.90
2016,02,25,11,22,11.90
2016,02,25,11,23,12.00
2016,02,25,11,24,12.10
2016,02,25,11,25,12.20
2016,02,25,11,26,12.20
2016,02,25,11,27,12.30
2016,02,25,11,28,12.30
2016,02,25,11,29,12.30
2016,02,25,11,30,12.40
2016,02,25,11,31,12.40
2016,02,25,11,32,12.40
2016,02,25,11,33,12.40
2016,02,25,11,34,12.40
2016,02,25,11,35,12.40
2016,02,25,11,36,12.50
2016,02,25,11,37,12.50
2016,02,25,11,38,12.40
2016,02,25,11,39,12.40
2016,02,25,11,40,12.40
2016,02,25,11,41,12.30
2016,02,25,11,42,12.30
2016,02,25,11,43,12.20
2016,02,25,11,44,12.20
2016,02,25,11,45,12.10
2016,02,25,11,46,12.10
2016,02,25,11,47,12.10
2016,02,25,11,48,12.20
2016,02,25,11,49,12.20
2016,02,25,11,50,12.20
2016,02,25,11,51,12.30
2016,02,25,11,52,12.30
2016,02,25,11,53,12.30
2016,02,25,11,54,12.30
2016,02,25,11,55,12.40
2016,02,25,11,56,12.40
2016,02,25,11,57,12.40
2016,02,25,11,58,12.40
2016,02,25,11,59,12.40
2016,02,25,12,00,12.30
2016,02,25,12,01,12.30
2016,02,25,12,02,12.40
2016,02,25,12,03,12.40
2016,02,25,12,04,12.40
2016,02,25,12,05,12.40
2016,02,25,12,06,12.40
2016,02,25,12,07,12.50
2016,02,25,12,08,12.50
2016,02,25,12,09,12.60
2016,02,25,12,10,12.60
2016,02,25,12,11,12.60
2016,02,25,12,12,12.60
2016,02,25,12,13,12.60
2016,02,25,12,14,12.60
2016,02,25,12,15,12.60
2016,02,25,12,16,12.60
2016,02,25,12,17,12.60
2016,02,25,12,18,12.60
2016,02,25,12,19,12.60
2016,02,25,12,20,12.50
2016,02,25,12,21,12.50
2016,02,25,12,22,12.50
2016,02,25,12,23,12.60
2016,02,25,12,24,12.60
2016,02,25,12,25,12.60
2016,02,25,12,26,12.60
2016,02,25,12,27,12.60
2016,02,25,12,28,12.60
2016,02,25,12,29,12.70
2016,02,25,12,30,12.70
2016,02,25,12,31,12.60
2016,02,25,12,32,12.60
2016,02,25,12,33,12.50
2016,02,25,12,34,12.50
2016,02,25,12,35,12.50
2016,02,25,12,36,12.50
2016,02,25,12,37,12.60
2016,02,25,12,38,12.60
2016,02,25,12,39,12.50
2016,02,25,12,40,12.50
2016,02,25,12,41,12.50
2016,02,25,12,42,12.60
2016,02,25,12,43,12.60
2016,02,25,12,44,12.60
2016,02,25,12,45,12.70
2016,02,25,12,46,12.70
2016,02,25,12,47,12.70
2016,02,25,12,48,12.80
2016,02,25,12,49,12.80
2016,02,25,12,50,12.80
2016,02,25,12,51,12.90
2016,02,25,12,52,12.90
2016,02,25,12,53,12.90
2016,02,25,12,54,12.90
2016,02,25,12,55,12.90
2016,02,25,12,56,12.90
2016,02,25,12,57,12.90
2016,02,25,12,58,12.90
2016,02,25,12,59,12.90
2016,02,25,13,00,12.90
2016,02,25,13,01,12.90
2016,02,25,13,02,12.90
2016,02,25,13,03,12.90
2016,02,25,13,04,12.90
2016,02,25,13,05,12.80
2016,02,25,13,06,12.80
2016,02,25,13,07,12.80
2016,02,25,13,08,12.80
2016,02,25,13,09,12.80
2016,02,25,13,10,12.90
2016,02,25,13,11,12.90
2016,02,25,13,12,13.00
2016,02,25,13,13,13.10
2016,02,25,13,14,13.10
2016,02,25,13,15,13.20
2016,02,25,13,16,13.20
2016,02,25,13,17,13.30
2016,02,25,13,18,13.40
2016,02,25,13,19,13.50
2016,02,25,13,20,13.50
2016,02,25,13,21,13.50
2016,02,25,13,22,13.50
2016,02,25,13,23,13.40
2016,02,25,13,24,13.40
2016,02,25,13,25,13.40
2016,02,25,13,26,13.40
2016,02,25,13,27,13.40
2016,02,25,13,28,13.40
2016,02,25,13,29,13.40
2016,02,25,13,30,13.40
2016,02,25,13,31,13.40
2016,02,25,13,32,13.40
2016,02,25,13,33,13.40
2016,02,25,13,34,13.40
2016,02,25,13,35,13.40
2016,02,25,13,36,13.40
2016,02,25,13,37,13.30
2016,02,25,13,38,13.30
2016,02,25,13,39,13.30
2016,02,25,13,40,13.40
2016,02,25,13,41,13.40
2016,02,25,13,42,13.40
2016,02,25,13,43,13.30
2016,02,25,13,44,13.30
2016,02,25,13,45,13.30
2016,02,25,13,46,13.30
2016,02,25,13,47,13.30
2016,02,25,13,48,13.30
2016,02,25,13,49,13.30
2016,02,25,13,50,13.30
2016,02,25,13,51,13.30
2016,02,25,13,52,13.30
2016,02,25,13,53,13.30
2016,02,25,13,54,13.30
2016,02,25,13,55,13.30
2016,02,25,13,56,13.30
2016,02,25,13,57,13.30
2016,02,25,13,58,13.30
2016,02,25,13,59,13.30
2016,02,25,14,00,13.30
2016,02,25,14,01,13.30
2016,02,25,14,02,13.20
2016,02,25,14,03,13.20
2016,02,25,14,04,13.20
2016,02,25,14,05,13.20
2016,02,25,14,06,13.10
2016,02,25,14,07,13.10
2016,02,25,14,08,13.10
2016,02,25,14,09,13.10
2016,02,25,14,10,13.10
2016,02,25,14,11,13.20
2016,02,25,14,12,13.20
2016,02,25,14,13,13.20
2016,02,25,14,14,13.20
2016,02,25,14,15,13.20
2016,02,25,14,16,13.20
2016,02,25,14,17,13.20
2016,02,25,14,18,13.20
2016,02,25,14,19,13.20
2016,02,25,14,20,13.20
2016,02,25,14,21,13.20
2016,02,25,14,22,13.20
2016,02,25,14,23,13.20
2016,02,25,14,24,13.20
2016,02,25,14,25,13.10
2016,02,25,14,26,13.10
2016,02,25,14,27,13.10
2016,02,25,14,28,13.00
2016,02,25,14,29,13.00
2016,02,25,14,30,13.00
2016,02,25,14,31,13.10
2016,02,25,14,32,13.10
2016,02,25,14,33,13.10
2016,02,25,14,34,13.10
2016,02,25,14,35,13.20
2016,02,25,14,36,13.20
2016,02,25,14,37,13.30
2016,02,25,14,38,13.30
2016,02,25,14,39,13.30
2016,02,25,14,40,13.30
2016,02,25,14,41,13.40
2016,02,25,14,42,13.40
2016,02,25,14,43,13.40
2016,02,25,14,44,13.40
2016,02,25,14,45,13.40
2016,02,25,14,46,13.40
2016,02,25,14,47,13.50
2016,02,25,14,48,13.60
2016,02,25,14,49,13.60
2016,02,25,14,50,13.60
2016,02,25,14,51,13.60
2016,02,25,14,52,13.60
2016,02,25,14,53,13.60
2016,02,25,14,54,13.60
2016,02,25,14,55,13.60
2016,02,25,14,56,13.60
2016,02,25,14,57,13.50
2016,02,25,14,58,13.40
2016,02,25,14,59,13.50
2016,02,25,15,00,13.50
2016,02,25,15,01,13.60
2016,02,25,15,02,13.60
2016,02,25,15,03,13.60
2016,02,25,15,04,13.60
2016,02,25,15,05,13.70
2016,02,25,15,06,13.60
2016,02,25,15,07,13.60
2016,02,25,15,08,13.60
2016,02,25,15,09,13.60
2016,02,25,15,10,13.60
2016,02,25,15,11,13.60
2016,02,25,15,12,13.60
2016,02,25,15,13,13.60
2016,02,25,15,14,13.60
2016,02,25,15,15,13.60
2016,02,25,15,16,13.60
2016,02,25,15,17,13.60
2016,02,25,15,18,13.60
2016,02,25,15,19,13.60
2016,02,25,15,20,13.60
2016,02,25,15,21,13.70
2016,02,25,15,22,13.70
2016,02,25,15,23,13.70
2016,02,25,15,24,13.70
2016,02,25,15,25,13.70
2016,02,25,15,26,13.70
2016,02,25,15,27,13.70
2016,02,25,15,28,13.70
2016,02,25,15,29,13.70
2016,02,25,15,30,13.60
2016,02,25,15,31,13.60
2016,02,25,15,32,13.60
2016,02,25,15,33,13.60
2016,02,25,15,34,13.60
2016,02,25,15,35,13.60
2016,02,25,15,36,13.60
2016,02,25,15,37,13.60
2016,02,25,15,38,13.60
2016,02,25,15,39,13.60
2016,02,25,15,40,13.60
2016,02,25,15,41,13.60
2016,02,25,15,42,13.60
2016,02,25,15,43,13.60
2016,02,25,15,44,13.60
2016,02,25,15,45,13.60
2016,02,25,15,46,13.70
2016,02,25,15,47,13.70
2016,02,25,15,48,13.70
2016,02,25,15,49,13.70
2016,02,25,15,50,13.70
2016,02,25,15,51,13.70
2016,02,25,15,52,13.70
2016,02,25,15,53,13.70
2016,02,25,15,54,13.70
2016,02,25,15,55,13.70
2016,02,25,15,56,13.70
2016,02,25,15,57,13.70
2016,02,25,15,58,13.70
2016,02,25,15,59,13.80
2016,02,25,16,00,13.80
2016,02,25,16,01,13.80
2016,02,25,16,02,13.80
2016,02,25,16,03,13.80
2016,02,25,16,04,13.80
2016,02,25,16,05,13.80
2016,02,25,16,06,13.80
2016,02,25,16,07,13.80
2016,02,25,16,08,13.80
2016,02,25,16,09,13.70
2016,02,25,16,10,13.70
2016,02,25,16,11,13.70
2016,02,25,16,12,13.70
2016,02,25,16,13,13.70
2016,02,25,16,14,13.70
2016,02,25,16,15,13.70
2016,02,25,16,16,13.70
2016,02,25,16,17,13.70
2016,02,25,16,18,13.70
2016,02,25,16,19,13.70
2016,02,25,16,20,13.70
2016,02,25,16,21,13.70
2016,02,25,16,22,13.70
2016,02,25,16,23,13.80
2016,02,25,16,24,13.80
2016,02,25,16,25,13.80
2016,02,25,16,26,13.80
2016,02,25,16,27,13.80
2016,02,25,16,28,13.80
2016,02,25,16,29,13.80
2016,02,25,16,30,13.80
2016,02,25,16,31,13.70
2016,02,25,16,32,13.70
2016,02,25,16,33,13.60
2016,02,25,16,34,13.60
2016,02,25,16,35,13.60
2016,02,25,16,36,13.60
2016,02,25,16,37,13.60
2016,02,25,16,38,13.50
2016,02,25,16,39,13.50
2016,02,25,16,40,13.40
2016,02,25,16,41,13.40
2016,02,25,16,42,13.30
2016,02,25,16,43,13.30
2016,02,25,16,44,13.30
2016,02,25,16,45,13.30
2016,02,25,16,46,13.20
2016,02,25,16,47,13.20
2016,02,25,16,48,13.20
2016,02,25,16,49,13.10
2016,02,25,16,50,13.10
2016,02,25,16,51,13.10
2016,02,25,16,52,13.00
2016,02,25,16,53,13.00
2016,02,25,16,54,12.90
2016,02,25,16,55,12.90
2016,02,25,16,56,12.90
2016,02,25,16,57,12.90
2016,02,25,16,58,12.80
2016,02,25,16,59,12.80
2016,02,25,17,00,12.80
2016,02,25,17,01,12.70
2016,02,25,17,02,12.70
2016,02,25,17,03,12.60
2016,02,25,17,04,12.60
2016,02,25,17,05,12.60
2016,02,25,17,06,12.50
2016,02,25,17,07,12.50
2016,02,25,17,08,12.50
2016,02,25,17,09,12.40
2016,02,25,17,10,12.40
2016,02,25,17,11,12.40
2016,02,25,17,12,12.40
2016,02,25,17,13,12.40
2016,02,25,17,14,12.40
2016,02,25,17,15,12.40
2016,02,25,17,16,12.30
2016,02,25,17,17,12.30
2016,02,25,17,18,12.30
2016,02,25,17,19,12.20
2016,02,25,17,20,12.20
2016,02,25,17,21,12.20
2016,02,25,17,22,12.20
2016,02,25,17,23,12.20
2016,02,25,17,24,12.10
2016,02,25,17,25,12.10
2016,02,25,17,26,12.10
2016,02,25,17,27,12.00
2016,02,25,17,28,12.00
2016,02,25,17,29,12.00
2016,02,25,17,30,11.90
2016,02,25,17,31,11.90
2016,02,25,17,32,11.90
2016,02,25,17,33,11.90
2016,02,25,17,34,11.90
2016,02,25,17,35,11.90
2016,02,25,17,36,11.80
2016,02,25,17,37,11.80
2016,02,25,17,38,11.80
2016,02,25,17,39,11.80
2016,02,25,17,40,11.80
2016,02,25,17,41,11.70
2016,02,25,17,42,11.70
2016,02,25,17,43,11.70
2016,02,25,17,44,11.70
2016,02,25,17,45,11.70